Regional Weather Roundup
Issued by NWS

Home | Current Version | Previous Version | Graphics & Text | Print | Product List | Glossary Off
Versions: 1 2 3 4 5 6 7 8 9 10 11 12 13 14 15 16 17 18 19 20 21 22 23 24 25 26 27 28 29 30 31 32 33 34 35 36 37 38 39 40 41 42 43 44 45 46 47 48 49 50

418
ASUS43 KMKX 202311
RWRWI

WISCONSIN REGIONAL WEATHER ROUNDUP
NATIONAL WEATHER SERVICE MILWAUKEE/SULLIVAN WI
500 PM CST FRI JAN 20 2017

NOTE: "FAIR" INDICATES FEW OR NO CLOUDS BELOW 12,000 FEET WITH NO
SIGNIFICANT WEATHER AND/OR OBSTRUCTIONS TO VISIBILITY.

WIZ001-002-006>008-014>016-023>028-210000-
NORTHWEST WISCONSIN

CITY           SKY/WX    TMP DP  RH WIND       PRES   REMARKS
SUPERIOR ARPT  LGT RAIN  34  34 100 E3        29.60S
ASHLAND        MIX PCPN  35  34  96 CALM      29.61F VSB 1/2
HAYWARD        CLOUDY    37  34  89 SE5       29.59R WCI  33
SIREN          CLOUDY    36  35  98 CALM      29.59S FOG
CUMBERLAND     DRZL/FOG  34  32  93 SE5       29.59R VSB 1   WCI  30
RICE LAKE      CLOUDY    35  35  98 SE8       29.61R FOG     WCI  29
CHETEK         CLOUDY    35  35  99 SE5       29.60S FOG     WCI  31
LADYSMITH      CLOUDY    37  36  97 SE6       29.62R FOG     WCI  32
EAU CLAIRE     CLOUDY    36  34  92 SE8       29.60S WCI  30
MENOMONIE        N/A    N/A N/A N/A MISG        N/A
NEW RICHMOND   CLOUDY    35  35 100 SE5       29.59S FOG     WCI  31
OSCEOLA        CLOUDY    36  36 100 SE8       29.61S WCI  29
$$

WIZ003>005-009-010-017-018-210000-
NORTH CENTRAL WISCONSIN

CITY           SKY/WX    TMP DP  RH WIND       PRES   REMARKS
MANITOWISH WTR RAIN      33  33 100 CALM      29.60S
ARBOR VITAE    MIX PCPN  37  36  96 SE6       29.60F WCI  32
WOODRUFF       MIX PCPN  37  36  96 SE6       29.60F WCI  32
RHINELANDER    LGT RAIN  34  34 100 E6        29.61S WCI  29
EAGLE RIVER    LGT RAIN  34  34 100 E7        29.61F WCI  27
LAND O LAKES   MIX PCPN  35  35 100 CALM      29.62F
PHILLIPS       DRIZZLE   34  34 100 SE3       29.61R
TOMAHAWK       CLOUDY    33  32  96 CALM      29.61S FOG
MEDFORD        DRIZZLE   33  33  98 SE3       29.61R
MERRILL        DRIZZLE   34  34 100 SE3         N/A
$$

WIZ029-030-035-036-043>047-210000-
CENTRAL WISCONSIN

CITY           SKY/WX    TMP DP  RH WIND       PRES   REMARKS
WAUSAU         CLOUDY    34  33  96 SE5       29.62R WCI  30
MOSINEE        FOG       34  34 100 SE5       29.64R VSB 1   WCI  30
MARSHFIELD     FOG       34  33  96 SE8       29.61S VSB 1   WCI  27
STEVENS POINT  CLOUDY    32  32 100 E5        29.64S FOG     WCI  27
WAUPACA        CLOUDY    37  35  92 CALM      29.65S FOG
WAUTOMA        CLOUDY    35  34  96 E3        29.65R FOG
WISC RAPIDS    CLOUDY    35  35 100 E5        29.64S FOG     WCI  31
CAMP DOUGLAS   CLOUDY    36  34  93 E6        29.62S FOG     WCI  31
$$

WIZ011>013-019>022-031-037>040-048>050-210000-
NORTHEAST WISCONSIN

CITY           SKY/WX    TMP DP  RH WIND       PRES   REMARKS
ANTIGO         CLOUDY    33  33 100 E7        29.62R WCI  26
SHAWANO        CLOUDY    35  34  94 CALM      29.66R
OCONTO         CLOUDY    33  33  98 CALM      29.65S
STURGEON BAY   CLOUDY    34  33  96 SE3       29.66R
GREEN BAY      CLOUDY    35  35 100 NE6       29.65S FOG     WCI  30
MANITOWOC      CLOUDY    37  35  92 NE3       29.66R FOG
APPLETON       FOG       34  34 100 NE6       29.63R VSB 3/4 WCI  29
CLINTONVILLE   CLOUDY    34  34 100 E3        29.66R FOG
OSHKOSH        CLOUDY    35  33  92 NE5       29.64S FOG     WCI  31
$$

WIZ032>034-041-042-053>061-210000-
SOUTHWEST WISCONSIN

CITY           SKY/WX    TMP DP  RH WIND       PRES   REMARKS
LA CROSSE      CLOUDY    40  36  86 SE6       29.61R FOG
SPARTA         CLOUDY    35  35 100 E5        29.62S FOG     WCI  31
VIROQUA        CLOUDY    35  35 100 E8        29.59S VSB 1/2 WCI  28
BOSCOBEL       CLOUDY    38  37  97 NE3       29.61F FOG
PRAIRIE DU CHI CLOUDY    37  36  96 E5        29.59S FOG     WCI  33
PLATTEVILLE    CLOUDY    37  37 100 E6        29.60S VSB<1/4 WCI  32
$$

WIZ056-057-062-063-064-067-068-210000-
SOUTH CENTRAL WISCONSIN

CITY           SKY/WX    TMP DP  RH WIND       PRES   REMARKS
REEDSBURG      CLOUDY    35  35 100 CALM      29.62S FOG
BARABOO/DELLS  FOG       35  35  99 E3        29.62S VSB 1
LONE ROCK      FOG       36  35  96 E8        29.62F VSB 1/4 WCI  30
MINERAL POINT  FOG       37  37 100 E7        29.60S VSB<1/4 WCI  32
MADISON        DRZL/FOG  36  36 100 SE6       29.64R VSB 3/4 WCI  31
MIDDLETON      CLOUDY    38  38 100 SE7       29.63S VSB 1   WCI  33
WATERTOWN      FOG       36  36 100 SE3       29.65R VSB 1
MONROE         SNOW      36  36 100 E5        29.61S VSB<1/4 WCI  32
JANESVILLE     FOG       39  39 100 E6        29.63S VSB 1/2 WCI  35
$$

WIZ051-052-058>065-066-070>072-210000-
SOUTHEAST WISCONSIN

CITY           SKY/WX    TMP DP  RH WIND       PRES   REMARKS
MILWAUKEE      FOG       38  36  92 SE7       29.66R VSB 1/4 WCI  33
WAUKESHA       FOG       36  36 100 SE7       29.66R VSB 0   WCI  30
MILWAUKEE/TIMM FOG       36  34  93 SE5       29.66R VSB 1/2 WCI  32
RACINE         FOG       37  36  96 SE3       29.67R VSB 1/4
KENOSHA        FOG       37  37 100 SE3       29.66R VSB 1/4
FOND DU LAC    CLOUDY    37  32  82 S5        29.65R WCI  33
SHEBOYGAN      FOG       35  34  96 NE3       29.65R VSB 1/4
WEST BEND      CLOUDY    36  36 100 SE3       29.65R FOG
JUNEAU         CLOUDY    35  34  98 E5        29.66R FOG     WCI  31
$$

LSZ147-162-210000-
LAKE SUPERIOR

STATION/POSITION TIME  TEMP    WIND        PRES    WAVE
                       AIR SEA DIR/SP/G            HT/PER
                 (UTC) (F)     (DEG/KT/KT) (MB)    (FT/S)
DEVILS ISLAND    2300   34      70/ 10/ 10 1003.9F
PORT WING        2230   34      40/  8/  9 1003.0F
SAXON HARBOR     2240   35      CALM  /  2 1003.0F
$$

LMZ867-665-643>646-210000-
LAKE MICHIGAN

STATION/POSITION TIME  TEMP    WIND        PRES    WAVE
                       AIR SEA DIR/SP/G            HT/PER
                 (UTC) (F)     (DEG/KT/KT) (MB)    (FT/S)
NORTHPORT PIER   2240   32     360/  2/  4 1005.1S
SISTER BAY       2235   32      30/  2/  4   N/A
KEWAUNEE LAKESHO 2248   35      80/  4/  8 1004.1F
SHEBOYGAN LAKESH 2300   34      20/  2/  3 1004.6R
PORT WASHINGTON  2230   36     150/  4/  5 1005.4R
KENOSHA   LAKESH 2300   35        CALM     1004.7
$$

TC  - TEMPERATURE IN CELSIUS
VSB - VISIBILITY IN STATUTE MILES
WCI - WIND CHILL INDEX
HX  - HEAT INDEX





USA.gov is the U.S. government's official web portal to all federal, state and local government web resources and services.